Tracking 27112 objects as of 26-Mar-2023
HD Live streaming from Space Station
objects crossing your sky now

CARTOSAT-1

Track CARTOSAT-1 now!
10-day predictions
CARTOSAT-1 is classified as:


NORAD ID: 28649
Int'l Code: 2005-017A
Perigee: 619.4 km
Apogee: 622.3 km
Inclination: 97.7 °
Period: 97.0 minutes
Semi major axis: 6991 km
RCS: 4.7551 m2 (large)
Launch date: May 5, 2005
Source: India (IND)
Launch site: SRIHARIKOTA (SRI)

Remote sensing and mapping, land use, forest cover, river flow assessments.
Your satellite tracking list
Your tracking list is empty




NASA's NSSDC Master Catalog

Two Line Element Set (TLE):
1 28649U 05017A   23084.91259203  .00003295  00000-0  39273-3 0  9996
2 28649  97.6770 140.7030 0002044  56.4178 303.7233 14.84952453968495
Source of the keplerian elements: AFSPC